Flag for Germany Weather past 2 weeks in Freital, Saxony, Germany

46 °F

Light rain. Overcast.

Feels Like: 39 °F
Forecast: 42 / 50 °F
Wind: 17 mph from Northwest

Location: Dresden-Klotzsche

Current Time: Dec 1, 2015 at 6:05:45 AM

Latest Report: Dec 1, 2015 at 4:50 AM

Visibility: N/A

Pressure: 29.89 "Hg

Humidity: 87%

Dew point: 43 °F

Location of FreitalLocation

Historic Weather in Freital — Graph


Freital temperature yesterday

Maximum temperature yesterday: 50 °F (at 12:50 AM)
Minimum temperature yesterday: 37 °F (at 5:50 PM)
Average temperature yesterday: 44 °F

Past Weeks' High & Low Weather Summary

High59 °F (Nov 18, 1:50 AM)100% (Nov 16, 5:20 AM)30.24 "Hg (Nov 16, 5:20 AM)
Low25 °F (Nov 28, 3:50 AM)53% (Nov 30, 3:20 PM)29.36 "Hg (Nov 21, 12:20 PM)
Average41 °F83%29.83 "Hg
* Reported Nov 16 4:20 AM — Dec 1 4:20 AM, Freital, Weather by CustomWeather, © 2015

Note: Actual official high and low records may vary slightly from our data, if they occured in-between our weather recording intervals... More about our weather records


Freital weather history for previous 24 hours

Time TempWeatherWind HumidityBarometerVisibility
4:20 AM
Tue, Dec 1
46 °FLight rain. Overcast.23 mph93%29.86 "HgN/A
3:50 AM50 °FRain. Mostly cloudy.21 mph88%29.80 "Hg6 mi
3:20 AM48 °FLight rain. Mostly cloudy.18 mph94%29.80 "HgN/A
2:50 AM50 °FLight rain. Mostly cloudy.21 mph88%29.77 "HgN/A
1:50 AM48 °FLight rain. Mostly cloudy.20 mph87%29.74 "HgN/A
12:50 AM48 °FLight rain. Mostly cloudy.20 mph87%29.74 "HgN/A
12:20 AM48 °FLight rain. Mostly cloudy.22 mph82%29.74 "HgN/A
11:20 PM
Mon, Nov 30
48 °FLight rain. Mostly cloudy.17 mph82%29.74 "HgN/A
10:50 PM48 °FLight rain. Mostly cloudy.18 mph87%29.74 "HgN/A
10:20 PM48 °FLight rain. Mostly cloudy.17 mph87%29.77 "HgN/A
9:50 PM46 °FLight rain. Mostly cloudy.15 mph93%29.77 "HgN/A
9:20 PM46 °FLight rain. Mostly cloudy.17 mph93%29.80 "HgN/A
8:50 PM46 °FLight rain. Mostly cloudy.16 mph93%29.80 "HgN/A
8:20 PM45 °FLight rain. Mostly cloudy.12 mph93%29.80 "HgN/A
7:50 PM41 °FLight rain. Mostly cloudy.9 mph100%29.80 "HgN/A
7:20 PM39 °FLight rain. Overcast.7 mph93%29.83 "HgN/A
6:50 PM37 °FLight rain. Passing clouds.8 mph93%29.86 "HgN/A
6:20 PM37 °FRain. Passing clouds.9 mph100%29.89 "Hg5 mi
5:50 PM37 °FRain. Passing clouds.8 mph100%29.92 "HgN/A
5:20 PM39 °FRain. Partly cloudy.8 mph87%29.92 "Hg6 mi
4:50 PM39 °FRain. Passing clouds.10 mph87%29.95 "HgN/A
4:20 PM41 °FLight rain. Passing clouds.10 mph76%29.95 "HgN/A
3:50 PM43 °FLight rain. Partly sunny.15 mph61%29.98 "HgN/A
3:20 PM45 °FLight rain. Broken clouds.15 mph53%29.98 "HgN/A
2:50 PM45 °FBroken clouds.12 mph66%29.98 "HgN/A
2:20 PM45 °FBroken clouds.12 mph66%29.98 "HgN/A
1:50 PM45 °FBroken clouds.13 mph66%30.01 "HgN/A
1:20 PM45 °FBroken clouds.13 mph66%29.98 "HgN/A
12:50 PM45 °FPartly sunny.12 mph71%29.98 "HgN/A
12:20 PM43 °FPartly sunny.13 mph76%29.98 "HgN/A
11:50 AM45 °FBroken clouds.16 mph66%29.98 "HgN/A
11:20 AM45 °FBroken clouds.16 mph61%29.98 "HgN/A
10:50 AM45 °FBroken clouds.14 mph61%29.98 "HgN/A
10:20 AM45 °FBroken clouds.14 mph66%29.98 "HgN/A
9:50 AM45 °FBroken clouds.17 mph66%29.95 "HgN/A
9:20 AM43 °FBroken clouds.20 mph71%29.95 "HgN/A
7:50 AM45 °FBroken clouds.14 mph71%29.89 "HgN/A
7:20 AM45 °FPassing clouds.12 mph71%29.86 "HgN/A
6:50 AM45 °FPassing clouds.14 mph76%29.86 "HgN/A
6:20 AM45 °FPassing clouds.14 mph76%29.83 "HgN/A
Weather by CustomWeather, © 2015

See weather overviewHow to use our weather pages